346  
AXUS43 KLBF 200610  
MISLBF  
 
WESTERN AND NORTH CENTRAL NEBRASKA HOURLY WEATHER ROUNDUP  
NATIONAL WEATHER SERVICE NORTH PLATTE NE  
100 AM CDT SAT OCT 20 2018  
 
NOTE: "FAIR" INDICATES FEW OR NO CLOUDS BELOW 12,000 FEET WITH NO  
SIGNIFICANT WEATHER AND/OR OBSTRUCTIONS TO VISIBILITY.  
 
NOTE: STATIONS NOT REPORTING VARIABLES SUCH AS SKY/WEATHER OR  
PRESSURE ARE PROVIDED BY RAWS AND APRS NETWORKS AND ARE NOT UNDER  
NATIONAL WEATHER SERVICE QUALITY CONTROL.  
   
..OBSERVATIONS IN AND NEAR THE EASTERN PANHANDLE OF NEBRASKA
 
 
 
CITY SKY/WX TMP DP RH WIND PRES REMARKS  
PINE RIDGE CLEAR 30 27 88 E3 30.33R  
GORDON FAIR 33 28 81 W7 30.33R WCI 27  
CHADRON CLEAR 34 30 85 W5 30.34R WCI 30  
ALLIANCE CLEAR 31 29 92 W8 30.35R WCI 23  
SIDNEY CLEAR 33 29 85 W7 30.37R WCI 27  
CRESCENT LAKE N/A 39 29 68 SW5 N/A  

 
   
..OBSERVATIONS IN NORTHERN NEBRASKA AND FAR SOUTHERN SOUTH DAKOTA
 
 
 
CITY SKY/WX TMP DP RH WIND PRES REMARKS  
WINNER FAIR 43 28 55 W10 30.25R  
VALENTINE CLEAR 40 30 67 W10 30.28R WCI 33  
AINSWORTH CLEAR 39 30 70 W7 30.27S WCI 34  
O'NEILL CLEAR 45 30 55 W8 30.24R  
THEDFORD CLEAR 40 31 70 W10 30.31R WCI 34  
BROKEN BOW CLEAR 40 30 67 CALM 30.27R  
ORD CLEAR 37 31 78 CALM 30.25R  
ALBION CLEAR 40 32 73 NW3 30.23S  
EWING N/A 39 33 79 NW3 N/A  
CHAMBERS N/A 42 30 61 W3 N/A  
BUTTE N/A 41 30 65 W3 N/A  
VALENTINE NWR N/A 41 30 65 CALM N/A  

 
   
..OBSERVATIONS IN SOUTHWEST NEBRASKA AND FAR NORTHEAST COLORADO
 
 
 
CITY SKY/WX TMP DP RH WIND PRES REMARKS  
WRAY FAIR 37 30 75 W6 30.37R WCI 33  
HOLYOKE FAIR 37 32 81 W8 30.36R WCI 31  
IMPERIAL CLEAR 40 27 59 MISG 30.34R  
OGALLALA CLEAR 33 31 91 W5 30.35R WCI 29  
NORTH PLATTE CLEAR 36 29 75 N7 30.32R WCI 30  
MCCOOK CLEAR 39 32 76 W9 30.31S WCI 33  
LEXINGTON CLEAR 38 32 78 W8 30.29S WCI 32  
GOTHENBURG N/A 44 28 53 NW3 N/A  
CALLAWAY N/A 47 31 53 NW6 N/A  
STAPLETON N/A 39 29 69 CALM N/A  

 
   
..OBSERVATIONS IN CENTRAL LINCOLN COUNTY AREA
 
 
 
CITY SKY/WX TMP DP RH WIND PRES REMARKS  
N.P. AIRPORT CLEAR 36 29 75 N7 30.32R WCI 30  
N.P. DOWNTOWN N/A 42 31 64 CALM N/A  
N.P. SOUTHEAST N/A 42 30 62 CALM N/A  

 
   
..OBSERVATIONS ACROSS THE ROCKIES AND WESTERN HIGH PLAINS
 
 
 
CITY SKY/WX TMP DP RH WIND PRES REMARKS  
SHERIDAN CLEAR 34 30 85 S3 30.36S  
CASPER CLEAR 32 27 81 NW5 30.40R WCI 27  
LARAMIE CLEAR 29 22 75 SW7 30.45S WCI 22  
CHEYENNE CLEAR 34 27 75 W8 30.42S WCI 27  
SCOTTSBLUFF FLURRIES 34 31 88 NW6 30.37R WCI 29  
DENVER CLEAR 46 23 40 SW8 30.41S  
STEAMBOAT FAIR 37 30 76 E6 30.48S WCI 32  
COPPER MTN CLEAR 34 19 55 S9 30.64S WCI 26  
LEADVILLE CLEAR 24 18 77 CALM 30.57R  
ASPEN CLEAR 35 27 72 SW6 30.50R WCI 30  
GUNNISON CLEAR 34 20 56 NE3 30.51R  
TELLURIDE CLEAR 36 25 64 SE5 30.54R WCI 32  

 
   
..OBSERVATIONS ACROSS THE NORTHERN PLAINS
 
 
 
CITY SKY/WX TMP DP RH WIND PRES REMARKS  
RAPID CITY CLEAR 41 28 60 NW9 30.32S  
PIERRE CLEAR 43 32 65 W10 30.23R  
SIOUX FALLS CLEAR 44 31 60 W8 30.12R  
ABERDEEN CLEAR 45 29 53 W14G23 30.13R  
WILLISTON CLEAR 41 27 57 NW14 30.29R  
DICKINSON CLEAR 32 23 69 NW13 30.24F WCI 22  
BISMARCK CLEAR 46 27 47 NW15 30.20R  
FARGO MOCLDY 38 32 79 NW17 30.07R WCI 28  

 
   
..OBSERVATIONS ACROSS THE CENTRAL AND SOUTHERN PLAINS
 
 
 
CITY SKY/WX TMP DP RH WIND PRES REMARKS  
OMAHA CLEAR 48 34 58 NW3 30.17S  
GRAND ISLAND CLEAR 42 33 70 W8 30.25S  
KANSAS CITY CLEAR 52 38 58 NW7 30.16R  
WICHITA CLEAR 54 48 80 N9 30.21R  
DODGE CITY CLEAR 45 36 70 N5 30.30R  
OKLAHOMA CITY FOG 49 49 100 CALM 30.18R VSB 1/4  
DALLAS CLOUDY 60 59 96 N5 30.15F  
AMARILLO CLEAR 51 41 68 N10 30.32R  

 
 
 
CLICK HERE TO GO TO PREVIOUS BULLETINS.

The Nexlab NE Page Main Text Page